Regional Weather Roundup
Issued by NWS

Home | Current Version | Previous Version | Graphics & Text | Print | Product List | Glossary On
Versions: 1 2 3 4 5 6 7 8 9 10 11 12 13 14 15 16 17 18 19 20 21 22 23 24 25 26 27 28 29 30 31 32 33 34 35 36 37 38 39 40 41 42 43 44 45 46 47 48 49 50
000
ASUS43 KIND 300909
RWRIN

WEATHER ROUNDUP FOR INDIANA
NATIONAL WEATHER SERVICE INDIANAPOLIS IN
500 AM EDT TUE SEP 30 2014

NOTE: "FAIR" INDICATES FEW OR NO CLOUDS BELOW 12,000 FEET WITH NO
SIGNIFICANT WEATHER AND/OR OBSTRUCTIONS TO VISIBILITY.

* - STATION DOES NOT REPORT WEATHER SUCH AS PRECIPITATION OR FOG.

+ - STATION NOT QUALITY CONTROLLED BY THE NATIONAL WEATHER SERVICE.
    USE DATA WITH CAUTION...ESPECIALLY DEWPOINT AND RELATIVE
    HUMIDITY OBSERVATIONS.

INZ001>003-010>013-019-020-301000-
NORTHWEST INDIANA

CITY           SKY/WX    TMP DP  RH WIND       PRES   REMARKS
GARY /AIRPORT/ CLOUDY    56  49  78 N15G23    30.03S
KNOX *+        CLOUDY    53  49  86 N14       29.98S
LA PORTE +     CLOUDY    55  52  90 N12G20    30.01R
MICHIGAN CITY+ CLOUDY    54  45  71 N15G23    30.01S
MONTICELLO +   CLOUDY    56  53  91 N8        29.97S
RENSSELAER +   CLOUDY    55  54  94 N12       29.99S
VALPARAISO     CLOUDY    54  49  83 N7        30.01R

$$

LMZ046-743>745-301000-
SOUTHERN LAKE MICHIGAN

STATION/POSITION TIME  TEMP WIND        PRES
                       AIR  DIR/SP/G
                 (UTC) (F)  (DEG/KT/KT) (MB)
MICHIGAN CITY    0900   54  350/ 25/ 29   N/A

$$

INZ004-005-014>016-021>024-301000-
NORTH CENTRAL INDIANA

CITY           SKY/WX    TMP DP  RH WIND       PRES   REMARKS
LOGANSPORT +   CLOUDY    55  52  88 N7        29.96F
PERU/GRISSOM   CLOUDY    58  58 100 N9        29.95S
ROCHESTER +    CLOUDY    55  54  94 NW10      29.97R
SOUTH BEND     CLOUDY    53  47  79 N13       30.00R
WARSAW +       CLOUDY    54  52  94 N9        29.96S

$$

INZ006>009-017-018-025>027-301000-
NORTHEAST INDIANA

CITY           SKY/WX    TMP DP  RH WIND       PRES   REMARKS
ANGOLA *+      CLOUDY    55  54  94 NW8       29.94S
AUBURN +       DRIZZLE   59  55  88 NW6       29.93S
FORT WAYNE     LGT RAIN  59  57  93 N6        29.92F FOG
HUNTINGTON +   CLOUDY    58  56  96 NW5       29.93S

$$

INZ028-029-035-036-043>045-051>053-301000-
WEST CENTRAL INDIANA

CITY           SKY/WX    TMP DP  RH WIND       PRES   REMARKS
GREENCASTLE +  CLEAR     55  54  94 CALM      29.95S
LAFAYETTE      CLOUDY    57  55  93 N7        29.97S
TERRE HAUTE    CLEAR     56  55  97 CALM      29.94R

$$

INZ030>032-037>040-046>048-054>057-064-065-301000-
CENTRAL INDIANA

CITY           SKY/WX    TMP DP  RH WIND       PRES   REMARKS
CP ATTERBURY + CLEAR     50  48  93 CALM      29.94R
FRANKFORT +    CLOUDY   N/A N/A N/A N8        29.97S FOG
INDIANAPOLIS   PTCLDY    61  54  77 NW3       29.93R
-EAGLE CREEK   CLEAR     61  54  77 MISG      29.94R
KOKOMO *+      CLOUDY    57  54  88 NW8       29.96S
MARION +       CLOUDY    57  55  92 N8        29.95R FOG
MT COMFORT *+  CLEAR     52  50  93 CALM      29.94S
SHELBYVILLE    CLEAR     54  49  83 S3        29.93S
ZIONSVILLE +   DRZL/FOG  59  56  91 NW6       29.95S VSB 1/4

$$

INZ033-034-041-042-049-050-058-059-301000-
EAST CENTRAL INDIANA

CITY           SKY/WX    TMP DP  RH WIND       PRES   REMARKS
MUNCIE         PTCLDY    57  53  86 NW7       29.93S

$$

INZ060-061-067>069-081>083-085>088-301000-
SOUTHWEST INDIANA

CITY           SKY/WX    TMP DP  RH WIND       PRES   REMARKS
EVANSVILLE     CLEAR     59  55  87 CALM      29.94S
WASHINGTON +   CLEAR     53  53 100 CALM      29.93S

$$

INZ062-063-066-070>080-084-089>092-301000-
SOUTH CENTRAL AND SOUTHEAST INDIANA

CITY           SKY/WX    TMP DP  RH WIND       PRES   REMARKS
BLOOMINGTON    CLEAR     54  52  93 CALM      29.94S

$$




USA.gov is the U.S. government's official web portal to all federal, state and local government web resources and services.